Total_Precipitation_Accumulation
2.77 3.05 3.17 2.40 1.99 1.91 2.05 2.05 2.03 2.01 2.17 2.28 2.21 2.25 2.19 2.34 2.46 2.43 2.55 2.89 3.13 3.43 3.95 4.07 3.87 3.49 3.07 2.87 2.77 2.50 2.15 2.12 2.11 2.09 2.06 2.09 2.18 2.43 2.83 2.58 2.38 1.77 1.68
2.25 2.55 2.63 2.12 1.77 1.79 1.88 1.90 1.89 1.94 2.01 1.94 1.97 2.20 2.34 2.52 2.73 2.70 2.97 3.42 3.75 4.07 4.01 3.63 3.29 2.90 2.77 2.58 2.41 2.27 2.15 2.19 2.25 2.21 2.10 1.96 2.26 2.59 2.86 2.71 2.64 1.82 1.74
1.76 1.93 1.88 1.91 1.72 1.70 1.75 1.73 1.72 1.75 1.82 1.73 1.83 2.18 2.42 2.65 3.00 3.20 3.45 3.72 4.03 3.97 3.47 3.08 2.67 2.45 2.40 2.25 2.14 2.11 2.10 2.22 2.32 2.48 2.46 1.89 1.84 2.57 2.66 2.51 2.11 1.60 1.58
1.47 1.50 1.43 1.62 1.65 1.66 1.62 1.49 1.48 1.56 1.65 1.72 1.86 2.17 2.46 2.71 3.04 3.19 3.38 3.58 3.70 3.44 3.13 2.66 2.28 2.18 2.09 1.90 1.81 1.81 1.93 2.18 2.47 2.81 2.73 2.12 1.44 1.99 2.34 2.15 1.80 1.49 1.43
1.30 1.30 1.48 1.53 1.52 1.58 1.41 1.38 1.44 1.52 1.58 1.70 1.86 2.17 2.50 2.84 3.03 3.12 3.14 3.34 3.18 2.94 2.75 2.50 2.26 2.03 1.85 1.70 1.63 1.66 1.84 2.20 2.49 2.68 2.41 2.27 1.98 2.08 2.12 1.98 1.75 1.63 1.53
1.17 1.27 1.41 1.48 1.49 1.65 1.47 1.34 1.48 1.57 1.67 1.79 2.06 2.28 2.35 2.65 2.79 2.85 2.96 3.16 3.01 2.82 2.60 2.35 2.11 1.89 1.67 1.52 1.54 1.57 1.81 2.25 2.28 1.96 1.92 1.98 1.84 1.97 1.94 2.02 1.87 1.69 1.55
1.27 1.43 1.39 1.49 1.51 1.64 1.58 1.38 1.52 1.74 1.89 1.88 2.06 2.18 2.16 2.38 2.51 2.65 2.85 2.95 2.82 2.60 2.33 2.14 1.97 1.81 1.62 1.58 1.55 1.57 1.87 2.17 1.93 1.65 1.71 2.06 1.85 1.60 1.85 2.11 2.05 1.78 1.55
1.21 1.38 1.45 1.67 1.66 1.67 1.69 1.54 1.59 1.79 1.88 1.93 1.97 1.93 2.01 2.23 2.36 2.55 2.74 2.85 2.63 2.25 2.08 1.98 1.83 1.72 1.62 1.58 1.49 1.55 1.78 1.78 1.47 1.49 1.43 1.64 1.52 1.49 1.78 2.02 2.03 1.83 1.65
1.33 1.34 1.41 1.59 1.57 1.67 1.80 1.76 1.78 1.95 1.99 1.94 1.95 1.95 2.02 2.20 2.38 2.55 2.71 2.85 2.49 2.09 1.96 1.85 1.72 1.59 1.49 1.48 1.51 1.63 1.83 1.90 1.68 1.73 1.32 1.49 1.45 1.61 1.88 2.02 2.01 1.92 1.86
1.74 1.53 1.48 1.62 1.72 1.65 1.75 1.85 1.98 2.06 2.18 2.27 2.28 2.31 2.40 2.47 2.43 2.62 2.68 2.73 2.41 2.13 2.02 1.93 1.83 1.63 1.57 1.52 1.56 1.81 2.08 1.87 1.40 1.48 1.59 1.44 1.53 1.86 2.20 2.16 2.18 2.18 2.19
2.10 1.90 1.71 1.55 1.61 1.67 1.73 1.99 2.40 2.47 2.45 2.53 2.68 2.69 2.70 2.92 2.95 3.13 2.92 2.82 2.54 2.38 2.37 2.28 2.20 2.03 1.84 1.69 1.82 2.06 1.97 1.65 1.69 1.81 1.83 1.59 1.79 2.24 2.56 2.50 2.45 2.41 2.42
2.27 1.93 1.86 1.74 1.63 1.57 1.55 1.99 2.62 2.48 2.41 2.53 2.74 2.69 2.93 3.43 3.73 3.34 3.43 3.39 3.19 3.08 2.99 2.97 2.96 2.52 2.04 2.01 2.54 2.63 1.84 1.74 1.97 2.02 2.01 1.96 2.21 2.68 2.96 2.93 2.88 2.66 2.62
2.43 2.06 1.97 1.89 1.89 1.91 2.03 2.04 2.38 2.60 2.73 2.82 2.87 2.92 3.24 3.41 3.65 3.79 3.83 3.89 3.94 3.63 3.33 3.53 3.38 2.66 2.65 3.01 3.07 2.74 2.16 2.12 2.29 2.21 2.35 2.45 2.52 3.04 3.54 3.45 3.33 3.04 2.82
2.67 2.35 2.13 2.02 2.08 2.22 2.18 2.22 2.32 2.53 2.69 2.91 3.11 3.07 3.41 3.92 4.07 4.25 4.23 4.10 4.25 4.05 4.11 4.02 4.03 3.49 3.45 3.14 3.01 2.90 2.67 2.69 2.63 2.85 3.31 2.96 2.70 3.08 3.88 3.97 3.80 3.44 3.01
2.82 2.53 2.46 2.19 2.17 2.27 2.49 2.67 2.45 2.88 3.01 3.13 3.41 3.54 3.65 4.01 4.15 4.33 4.37 4.40 3.96 3.94 4.13 4.46 4.22 4.37 4.32 3.80 3.27 3.08 3.09 3.06 3.01 3.11 3.40 3.43 3.22 3.32 4.16 4.65 4.49 4.10 3.58
2.79 2.64 2.61 2.44 2.50 2.61 2.73 2.91 3.00 3.26 3.55 3.52 3.64 3.76 3.87 4.11 4.48 4.57 4.58 4.53 4.04 3.86 4.13 4.44 4.35 4.86 4.76 4.51 3.85 3.45 3.27 3.25 3.17 3.20 3.53 3.75 3.69 3.63 4.11 4.74 5.01 4.93 4.45
2.60 2.70 2.89 2.95 3.20 3.32 3.33 3.34 3.33 3.53 3.67 3.89 4.31 4.42 4.54 4.51 4.71 4.55 4.53 4.36 4.20 4.08 4.22 4.37 4.50 4.87 4.55 4.45 4.28 3.91 3.66 3.43 3.22 3.40 3.80 4.22 3.83 3.74 4.15 4.70 5.14 5.12 4.95
2.66 2.74 2.97 3.08 3.48 3.68 3.78 3.92 3.85 3.89 3.98 4.33 4.61 4.89 4.87 4.70 4.57 4.74 4.48 4.23 4.30 4.21 4.43 4.82 4.82 4.88 4.97 4.84 4.58 4.27 4.02 3.88 3.39 3.45 3.63 3.86 4.11 3.53 3.96 4.71 4.99 4.73 4.82
2.99 3.25 3.61 3.74 3.67 3.77 3.99 4.21 4.01 4.12 4.18 4.23 4.40 4.77 4.71 4.35 4.21 4.76 4.67 4.64 4.52 4.73 4.68 4.30 4.93 5.13 5.13 5.05 4.37 4.28 3.81 3.72 3.62 3.41 3.53 3.60 3.84 3.77 3.78 3.87 4.47 4.32 4.56
3.36 3.76 4.00 4.03 4.28 4.58 4.79 4.73 4.54 4.31 4.23 4.12 4.23 4.49 4.40 4.34 4.22 4.63 4.52 4.54 4.70 5.14 5.24 5.07 5.37 5.22 5.01 5.05 4.25 4.02 3.70 3.30 3.22 3.19 3.02 3.28 3.35 3.01 3.18 3.42 3.86 3.31 3.62
3.46 3.70 3.98 4.37 4.77 4.92 4.75 4.70 4.74 4.66 4.51 4.18 4.07 4.23 4.28 4.03 4.04 4.50 4.28 4.79 4.79 4.98 5.12 5.00 5.22 5.06 4.80 4.88 4.84 4.26 3.59 3.09 2.95 2.74 2.75 2.98 2.91 2.90 3.22 3.68 3.97 3.83 3.38
3.20 3.48 3.87 4.34 4.70 4.63 4.77 5.03 5.06 4.99 4.48 4.22 4.15 4.24 4.09 3.82 3.71 3.85 4.49 4.47 4.57 4.83 4.87 4.83 4.87 4.59 4.28 4.68 5.03 4.91 4.12 3.63 3.09 2.49 2.71 2.75 2.90 3.18 3.17 3.24 3.74 4.09 3.84
3.16 3.60 3.94 4.28 4.42 4.47 4.73 4.91 4.67 4.57 4.19 4.18 4.24 4.16 3.94 3.77 3.71 3.87 4.22 4.29 4.38 4.29 4.55 4.78 4.59 4.51 4.40 4.48 4.73 5.07 4.59 3.91 3.26 2.78 2.60 2.67 3.04 3.34 3.21 3.16 3.11 3.35 3.42
3.13 3.72 4.16 4.19 4.27 4.17 4.37 4.55 4.42 4.14 3.98 3.92 3.94 3.72 3.61 3.49 3.43 3.59 3.84 4.08 4.22 4.12 4.32 4.15 4.28 4.49 4.57 4.39 4.48 4.40 4.37 4.13 3.91 3.36 2.84 2.70 2.95 3.06 3.04 2.76 2.75 3.10 3.26
2.85 3.26 3.70 4.06 4.15 3.99 3.99 4.13 4.32 4.15 3.90 3.70 3.58 3.51 3.46 3.46 3.28 3.30 3.53 3.77 3.89 3.81 3.83 4.04 4.42 4.35 4.32 4.25 4.40 4.47 4.60 4.36 4.01 3.79 3.35 3.07 2.86 2.58 2.63 2.64 2.61 2.72 2.98
2.66 3.05 3.33 3.55 3.55 3.53 3.54 3.62 3.76 3.85 3.85 3.62 3.40 3.42 3.40 3.31 3.19 3.16 3.27 3.60 3.68 3.61 3.62 3.80 3.94 3.99 4.04 4.19 4.22 4.13 4.34 4.36 4.17 4.17 3.69 3.29 2.94 2.41 2.33 2.39 2.51 2.64 2.76